Flag for Germany Weather past 2 weeks in Remscheid, North Rhine-Westphalia, Germany

Now
81 °F

Sunny.


Feels Like: 79 °F
Forecast: 63 / 85 °F
Wind: 3 mph from North

Location: Duesseldorf

Current Time: Aug 2, 2015 at 5:02:11 PM

Latest Report: Aug 2, 2015 at 4:20 PM


Visibility: 10 mi

Pressure: 30.09 "Hg

Humidity: 26%

Dew point: 43 °F

Location of RemscheidLocation

Historic Weather in Remscheid — Graph

°F

Remscheid temperature yesterday

Maximum temperature yesterday: 77 °F (at 3:20 PM)
Minimum temperature yesterday: 50 °F (at 6:20 AM)
Average temperature yesterday: 65 °F

Past Weeks' High & Low Weather Summary

 TemperatureHumidityPressure
High81 °F (Jul 24, 2:50 PM)100% (Jul 20, 6:20 AM)30.15 "Hg (Jul 20, 6:20 AM)
Low45 °F (Jul 31, 4:50 AM)26% (Aug 2, 3:50 PM)29.50 "Hg (Jul 25, 6:50 AM)
Average64 °F69%29.89 "Hg
* Reported Jul 18 3:20 PM — Aug 2 3:50 PM, Remscheid, Weather by CustomWeather, © 2015

Note: Actual official high and low records may vary slightly from our data, if they occured in-between our weather recording intervals... More about our weather records

Advertising

Remscheid weather history for previous 24 hours

 ConditionsComfort  
Time TempWeatherWind HumidityBarometerVisibility
3:50 PM
Sun, Aug 2
79 °FPassing clouds.5 mph26%30.09 "HgN/A
3:20 PM79 °FSunny.7 mph28%30.09 "Hg10 mi
2:50 PM79 °FPassing clouds.5 mph28%30.09 "HgN/A
2:20 PM77 °FPassing clouds.5 mph30%30.12 "HgN/A
1:50 PM77 °FPassing clouds.5 mph32%30.12 "HgN/A
1:20 PM77 °FSunny.2 mph30%30.12 "Hg10 mi
12:50 PM75 °FSunny.3 mph34%30.15 "Hg10 mi
12:20 PM73 °FSunny.2 mph38%30.15 "Hg10 mi
11:50 AM73 °FSunny.1 mph38%30.15 "Hg10 mi
11:20 AM73 °FPassing clouds.5 mph38%30.15 "HgN/A
10:50 AM72 °FSunny.3 mph41%30.15 "Hg10 mi
10:20 AM72 °FSunny.2 mph41%30.15 "Hg10 mi
9:50 AM70 °FSunny.2 mph46%30.15 "Hg10 mi
9:20 AM68 °FSunny.3 mph56%30.12 "Hg10 mi
8:50 AM64 °FSunny.1 mph64%30.12 "Hg10 mi
8:20 AM61 °FSunny.1 mph77%30.12 "Hg10 mi
7:50 AM57 °FSunny.1 mph88%30.12 "Hg10 mi
7:20 AM54 °FSunny.2 mph88%30.12 "Hg10 mi
6:50 AM52 °FClear.3 mph94%30.12 "Hg10 mi
6:20 AM50 °FClear.2 mph94%30.09 "Hg10 mi
5:50 AM50 °FFog.2 mph88%30.09 "HgN/A
5:20 AM50 °FFog.1 mph94%30.09 "HgN/A
4:50 AM50 °FFog.No wind94%30.09 "HgN/A
4:20 AM50 °FFog.2 mph94%30.09 "HgN/A
3:50 AM52 °FFog.1 mph88%30.09 "HgN/A
3:20 AM52 °FClear.2 mph88%30.09 "Hg10 mi
2:20 AM54 °FClear.2 mph88%30.07 "Hg10 mi
1:50 AM55 °FClear.2 mph82%30.07 "Hg10 mi
1:20 AM55 °FClear.1 mph82%30.07 "Hg10 mi
12:50 AM57 °FClear.3 mph77%30.07 "Hg10 mi
12:20 AM59 °FClear.2 mph72%30.07 "Hg10 mi
11:20 PM
Sat, Aug 1
63 °FClear.6 mph59%30.07 "Hg10 mi
10:50 PM64 °FClear.5 mph56%30.04 "Hg10 mi
10:20 PM66 °FClear.5 mph52%30.04 "Hg10 mi
9:50 PM68 °FSunny.9 mph46%30.04 "Hg10 mi
9:20 PM68 °FSunny.9 mph46%30.04 "Hg10 mi
8:50 PM70 °FSunny.6 mph43%30.01 "Hg10 mi
8:20 PM73 °FSunny.8 mph38%30.01 "Hg10 mi
7:50 PM75 °FSunny.7 mph34%29.98 "Hg10 mi
7:20 PM75 °FSunny.8 mph34%29.98 "Hg10 mi
6:50 PM77 °FSunny.9 mph32%29.98 "Hg10 mi
6:20 PM75 °FSunny.8 mph34%29.98 "Hg10 mi
5:50 PM75 °FSunny.7 mph34%29.98 "Hg10 mi
5:20 PM77 °FSunny.9 mph32%29.98 "Hg10 mi
Weather by CustomWeather, © 2015

See weather overviewHow to use our weather pages